Terug naar catalogus

NIMBUS 2 DEB

ActiefLEO
NORAD 25614·DEBRIS·🇺🇸 United States

Gelanceerd May 15, 1966 vanaf Vandenberg Space Force Base

Loading…

Volgende Passages (komende 24 uur)

TLE

VersSource: Space-Track

Epoch: Sep 14, 2026, 12:06 UTC

1 25614U 66040G   26257.50466333  .00001833  00000-0  23699-2 0  9992
2 25614 100.5117  95.5593 0053072 225.4744 162.7871 13.63343653482021

Volg NIMBUS 2 DEB in realtime met AllMySat

Download on the App Store